Tracking 28790 objects as of 19-Apr-2024
HD Live streaming from Space Station
objects crossing your sky now

COSMOS 2251 DEB

Track COSMOS 2251 DEB now!
10-day predictions


NORAD ID: 35956
Int'l Code: 1993-036AUW
Perigee: 728.9 km
Apogee: 1,138.1 km
Inclination: 74.1 °
Period: 103.5 minutes
Semi major axis: 7304 km
RCS: 0.0024 m2 (small)
Launch date: June 16, 1993
Source: Commonwealth of Independent States (former USSR) (CIS)
Launch site: PLESETSK MISSILE AND SPACE COMPLEX (PKMTR)

Note: This is SATELLITE DEBRIS
Your satellite tracking list
Your tracking list is empty




NASA's NSSDC Master Catalog

Two Line Element Set (TLE):
1 35956U 93036AUW 24098.36135992  .00009265  00000-0  54142-2 0  9990
2 35956  74.0913 234.3183 0280066 100.4231 262.8588 13.90653263532637
Source of the keplerian elements: AFSPC